The Dalles, WA

10:32 PM PDT on October 18, 2019 (GMT -0700)
Columbia Gorge Regional-The Dalles

Weather History for KDLS - May, 2019

Change the Weather History Date:

Sunday, May 19, 2019

  Actual Average Record
Temperature  
Mean Temperature 58 °F -  
Max Temperature 66 °F 74 °F 91 °F (1993)
Min Temperature 51 °F 49 °F 34 °F (2003)
Degree Days  
Heating Degree Days 6    
Growing Degree Days 8 (Base 50)    
Moisture  
Dew Point 49 °F    
Average Humidity 73    
Maximum Humidity 93    
Minimum Humidity 54    
Precipitation  
Precipitation 0.14 in - - ()
Sea Level Pressure  
Sea Level Pressure 29.69 in    
Wind  
Wind Speed 9 mph (NW)    
Max Wind Speed 18 mph    
Max Gust Speed 26 mph    
Visibility 10 miles    
Events Rain    
Averages and records for this station are not official NWS values.
T = Trace of Precipitation, MM = Missing Value Source: NWS Daily Summary

Daily Weather History Graph

Daily Weather History Graph

Search for Another Location

Airport or City:

Astronomy

May. 19, 2019 Rise Set
Actual Time 5:29 AM PDT 8:33 PM PDT
Civil Twilight 4:54 AM PDT 9:08 PM PDT
Nautical Twilight 4:08 AM PDT 9:54 PM PDT
Astronomical Twilight 3:14 AM PDT 10:49 PM PDT
Moon 9:39 PM PDT 6:20 AM PDT
Length of Visible Light 16h 14m
Length of Day
15h 04m
Full, 99% of the Moon is Illuminated
May 19
Full
May 26
Last Quarter
Jun 3
New
Jun 9
First Quarter
Jun 17
Full

Hourly Weather History & Observations

Time (PDT) Temp. Dew Point Humidity Pressure Visibility Wind Dir Wind Speed Gust Speed Precip Events Conditions
12:53 AM 54.0 °F 51.1 °F 90% 29.66 in 10.0 mi West 3.5 mph - N/A   Scattered Clouds
1:53 AM 55.0 °F 51.1 °F 86% 29.67 in 10.0 mi Calm Calm - 0.01 in Rain Light Rain
2:53 AM 54.0 °F 52.0 °F 93% 29.67 in 10.0 mi South 3.5 mph - 0.00 in Rain Light Rain
3:53 AM 54.0 °F 52.0 °F 93% 29.68 in 10.0 mi North 3.5 mph - 0.02 in Rain Light Rain
4:53 AM 51.1 °F 46.0 °F 83% 29.70 in 10.0 mi NW 15.0 mph - 0.02 in   Overcast
5:02 AM 51.1 °F 46.0 °F 83% 29.70 in 10.0 mi WNW 12.7 mph - N/A   Overcast
5:53 AM 51.1 °F 45.0 °F 80% 29.71 in 10.0 mi NW 11.5 mph - 0.00 in Rain Light Rain
6:53 AM 52.0 °F 44.1 °F 74% 29.71 in 10.0 mi NW 16.1 mph - 0.00 in   Overcast
7:53 AM 54.0 °F 46.0 °F 75% 29.72 in 10.0 mi NW 10.4 mph - N/A   Overcast
8:53 AM 55.9 °F 46.0 °F 69% 29.72 in 10.0 mi NNW 12.7 mph - N/A   Mostly Cloudy
9:53 AM 57.0 °F 46.0 °F 67% 29.71 in 10.0 mi NW 15.0 mph - N/A   Overcast
10:53 AM 61.0 °F 46.0 °F 58% 29.70 in 10.0 mi NNW 12.7 mph - N/A   Mostly Cloudy
11:53 AM 64.0 °F 48.9 °F 58% 29.69 in 10.0 mi NNW 10.4 mph - N/A   Partly Cloudy
12:53 PM 66.0 °F 48.9 °F 54% 29.68 in 10.0 mi NNW 9.2 mph - N/A   Partly Cloudy
1:32 PM 57.0 °F 48.9 °F 74% 29.69 in 2.5 mi NNE 11.5 mph 23.0 mph 0.05 in Rain Rain
1:53 PM 59.0 °F 53.1 °F 81% 29.69 in 8.0 mi NW 4.6 mph - 0.08 in Rain Light Rain
2:53 PM 60.1 °F 53.1 °F 78% 29.68 in 10.0 mi WSW 6.9 mph - 0.01 in   Overcast
3:53 PM 62.1 °F 53.1 °F 72% 29.68 in 10.0 mi NW 8.1 mph - N/A   Overcast
4:53 PM 60.1 °F 50.0 °F 69% 29.68 in 10.0 mi NW 13.8 mph - N/A   Overcast
5:53 PM 60.1 °F 48.9 °F 67% 29.68 in 10.0 mi NW 17.3 mph - N/A   Overcast
6:53 PM 59.0 °F 48.9 °F 69% 29.68 in 10.0 mi NW 13.8 mph - N/A   Overcast
7:53 PM 60.1 °F 48.0 °F 64% 29.68 in 10.0 mi NW 16.1 mph 24.2 mph N/A   Overcast
8:53 PM 59.0 °F 48.0 °F 67% 29.69 in 10.0 mi NW 18.4 mph - N/A   Overcast
9:53 PM 59.0 °F 48.0 °F 67% 29.69 in 10.0 mi NW 15.0 mph - N/A   Overcast
10:53 PM 59.0 °F 46.9 °F 64% 29.69 in 10.0 mi NW 18.4 mph - N/A   Overcast
11:53 PM 59.0 °F 48.0 °F 67% 29.70 in 10.0 mi WNW 16.1 mph 26.5 mph N/A   Overcast